Location: New Plymouth
(39.0670°S, 174.0830°E)
Time: 16:55:28
(UTC+13:00)

ISS - Pass Details

Date: 01 February 2019
Orbit: 403 x 411 km, 51.6° (Epoch: 17 February)

Event Time Altitude Azimuth Distance (km) Brightness Sun altitude
Exits shadow 05:20:22 19° 270° (W) 1,051 -2.2 -13.2°
Maximum altitude 05:22:17 37° 212° (SSW) 666 -2.7 -12.9°
Drops below altitude 10° 05:25:27 10° 142° (SE) 1,498 0.3 -12.4°
Sets 05:27:39 0° 133° (SE) 2,364 2.0 -12.1°
